Regional Weather Roundup
Issued by NWS

Home | Current Version | Previous Version | Graphics & Text | Print | Product List | Glossary Off
Versions: 1 2 3 4 5 6 7 8 9 10 11 12 13 14 15 16 17 18 19 20 21 22 23 24 25 26 27 28 29 30 31 32 33 34 35 36 37 38 39 40 41 42 43 44 45 46 47 48 49 50

000
ASUS43 KTOP 250359
RWRKS

WEATHER ROUNDUP FOR KANSAS
NATIONAL WEATHER SERVICE GOODLAND KS
1100 PM CDT MON JUL 24 2017

NOTE:  "FAIR" INDICATES FEW OR NO CLOUDS BELOW 12,000 FEET WITH NO
SIGNIFICANT WEATHER AND/OR OBSTRUCTIONS TO VISIBILITY.

KSZ001>006-013>018-027>032-041>047-250500-
NORTHWEST KANSAS

CITY           SKY/WX    TMP DP  RH WIND       PRES   REMARKS
GOODLAND       CLEAR     78  58  49 SE14      30.03R
HAYS             N/A     82  55  39 S13       29.98R
HILL CITY      PTCLDY    82  54  37 S9        29.98R
RUSSELL        CLEAR     81  63  54 SE9       29.97R
$$

KSZ061>065-074>080-084>089-250500-
SOUTHWEST KANSAS

CITY           SKY/WX    TMP DP  RH WIND       PRES   REMARKS
DODGE CITY     CLEAR     79  56  45 SE10      30.02R
ELKHART          N/A     74  55  51 S12         N/A
GARDEN CITY    CLEAR     76  57  51 SE9       30.02R
GREAT BEND     CLEAR     81  60  48 S9        29.99R
LIBERAL        CLEAR     80  65  59 S12       30.04R
$$

KSZ066>073-081>083-090>101-250500-
SOUTHEAST KANSAS

CITY           SKY/WX    TMP DP  RH WIND       PRES   REMARKS
CHANUTE        CLEAR     79  72  79 SE5       29.99R
COFFEYVILLE    CLEAR     79  73  82 CALM      29.98R
HUTCHINSON     CLEAR     77  67  71 SE5       29.98R
MEDICINE LODGE   N/A     85  62  46 S10G17    29.98R
NEWTON         CLEAR     77  71  82 SE8       30.01R
PARSONS        CLEAR     76  73  91 CALM      30.00R
WICHITA INTL   CLEAR     82  68  62 S9        29.98R
WICHITA JABRA  CLEAR     80  69  69 SE5       29.99R
WINFIELD       CLEAR     81  68  64 SE6       30.00R
$$

KSZ007>012-019>026-033>040-048>060-102>105-250500-
NORTHEAST KANSAS

CITY           SKY/WX    TMP DP  RH WIND       PRES   REMARKS
CONCORDIA      CLEAR     78  74  87 SE8       29.98R
EMPORIA        CLEAR     79  73  82 SE5       29.99R
LAWRENCE       CLEAR     75  72  90 E5        30.00R
MANHATTAN      CLEAR     81  75  82 CALM      29.99R
OLATHE IND     CLEAR     76  69  79 E6        30.02R
OLATHE EXE     CLEAR     76  69  79 E7        30.02R
SALINA         CLEAR     85  68  56 SE10      29.97R
TOPEKA BILLARD CLEAR     78  72  81 E5        29.99R
TOPEKA FORBES  CLEAR     80  74  81 E5        30.00R
$$




USA.gov is the U.S. government's official web portal to all federal, state and local government web resources and services.